Date String (YYYY-MM-DD hh:mm:ss) UTC,Instrument flags,Ambient pressure (hPa),Sample flow (lpm),Bypass flow (lpm),Sample temperature (°C),Ambient temperature (°C),ASC tube jacket temperature (°C),LED temperature (°C),Box temperature (°C),Sample RH (%),Span deviation,Mass concentration (μg/m³),Mass concentration (μg/m³),Mass concentration (μg/m³)
DateTimeUTC,F1_M11,P_M11,Q1_M11,Q2_M11,T1_M11,T2_M11,T3_M11,T4_M11,T5_M11,U1_M11,ZSPAN_M11,X2_M11,X0_M11,X1_M11
2022-02-12 08:00:00,,0835.5,4.99,0.00,21.9,21.2,00.0,31.0,23.5,10.6,0000.0,0002.81,0003.70,0002.53
2022-02-12 08:01:00,,0835.5,4.99,0.00,22.0,21.9,00.0,31.1,23.7,10.6,0000.0,0002.88,0003.32,0002.59
2022-02-12 08:02:00,,0835.5,5.01,0.00,22.1,22.7,00.0,31.1,24.0,10.4,0000.0,0002.92,0003.94,0002.61
2022-02-12 08:03:00,,0835.5,4.99,0.00,22.2,23.0,00.0,31.1,24.2,10.3,0000.0,0002.95,0004.42,0002.62
2022-02-12 08:04:00,,0835.5,5.01,0.00,22.3,22.8,00.0,31.1,24.2,10.3,0000.0,0002.93,0004.40,0002.60
2022-02-12 08:05:00,,0835.5,5.00,0.00,22.3,22.5,00.0,31.1,24.1,10.3,0000.0,0002.92,0004.38,0002.60
2022-02-12 08:06:00,,0835.4,4.99,0.00,22.2,22.3,00.0,31.1,24.0,10.3,0000.0,0002.92,0004.42,0002.62
2022-02-12 08:07:00,,0835.4,5.01,0.00,22.2,22.0,00.0,31.1,23.9,10.3,0000.0,0002.90,0004.36,0002.62
2022-02-12 08:08:00,,0835.4,5.00,0.00,22.1,21.7,00.0,31.1,23.7,10.2,0000.0,0002.88,0004.29,0002.63
2022-02-12 08:09:00,,0835.3,5.00,0.00,22.0,21.5,00.0,31.1,23.6,10.3,0000.0,0002.95,0004.38,0002.67
2022-02-12 08:10:00,,0835.4,4.99,0.00,22.0,21.3,00.0,31.1,23.5,10.4,0000.0,0002.98,0004.37,0002.72
2022-02-12 08:11:00,,0835.3,5.01,0.00,21.9,21.2,00.0,31.1,23.4,10.5,0000.0,0003.06,0004.46,0002.80
2022-02-12 08:12:00,,0835.3,5.00,0.00,21.8,21.1,00.0,31.0,23.4,10.6,0000.0,0003.13,0004.53,0002.86
2022-02-12 08:13:00,,0835.3,5.00,0.00,21.8,21.0,00.0,31.0,23.4,10.6,0000.0,0003.15,0004.03,0002.92
2022-02-12 08:14:00,,0835.3,5.00,0.00,21.8,20.9,00.0,31.0,23.3,10.5,0000.0,0003.17,0003.59,0002.97
2022-02-12 08:15:00,,0835.3,5.01,0.00,21.7,21.0,00.0,30.9,23.3,10.6,0000.0,0003.20,0003.63,0003.02
2022-02-12 08:16:00,,0835.3,4.99,0.00,21.8,21.8,00.0,31.0,23.6,10.5,0000.0,0003.23,0003.71,0003.07
2022-02-12 08:17:00,,0835.3,5.01,0.00,22.0,22.6,00.0,31.0,23.9,10.3,0000.0,0003.23,0003.66,0003.07
2022-02-12 08:18:00,,0835.3,4.99,0.00,22.1,22.7,00.0,31.0,24.0,10.2,0000.0,0003.25,0003.79,0003.09
2022-02-12 08:19:00,,0835.3,5.01,0.00,22.1,22.4,00.0,31.0,23.9,10.2,0000.0,0003.27,0004.24,0003.12
2022-02-12 08:20:00,,0835.2,5.01,0.00,22.0,22.1,00.0,31.0,23.7,10.2,0000.0,0003.24,0004.57,0003.10
2022-02-12 08:21:00,,0835.3,5.00,0.00,22.0,21.8,00.0,31.0,23.6,10.2,0000.0,0003.21,0004.50,0003.05
2022-02-12 08:22:00,,0835.2,5.01,0.00,21.9,21.6,00.0,31.0,23.5,10.2,0000.0,0003.17,0004.39,0003.00
2022-02-12 08:23:00,,0835.3,4.99,0.00,21.9,21.5,00.0,31.0,23.5,10.2,0000.0,0003.15,0004.35,0002.95
2022-02-12 08:24:00,,0835.3,5.01,0.00,21.9,21.4,00.0,31.0,23.5,10.2,0000.0,0003.11,0004.29,0002.91
2022-02-12 08:25:00,,0835.3,5.01,0.00,21.8,21.3,00.0,30.9,23.5,10.2,0000.0,0003.09,0004.28,0002.88
2022-02-12 08:26:00,,0835.3,5.00,0.00,21.8,21.2,00.0,30.9,23.4,10.3,0000.0,0003.10,0004.30,0002.88
2022-02-12 08:27:00,,0835.2,4.99,0.00,21.8,21.1,00.0,30.9,23.4,10.5,0000.0,0003.11,0004.30,0002.89
2022-02-12 08:28:00,,0835.4,5.00,0.00,21.7,21.1,00.0,30.9,23.4,10.7,0000.0,0003.18,0004.42,0002.99
2022-02-12 08:29:00,,0835.3,5.01,0.00,21.7,21.0,00.0,30.9,23.3,10.9,0000.0,0003.22,0004.36,0003.07
2022-02-12 08:30:00,,0835.3,4.99,0.00,21.7,21.0,00.0,30.8,23.3,10.8,0000.0,0003.26,0004.12,0003.13
2022-02-12 08:31:00,,0835.3,4.99,0.00,21.8,21.5,00.0,30.9,23.5,10.7,0000.0,0003.32,0003.80,0003.17
2022-02-12 08:32:00,,0835.3,5.01,0.00,21.9,22.3,00.0,30.9,23.8,10.5,0000.0,0003.38,0003.88,0003.22
2022-02-12 08:33:00,,0835.3,4.99,0.00,22.0,22.9,00.0,30.9,24.0,10.3,0000.0,0003.42,0003.95,0003.25
2022-02-12 08:34:00,,0835.3,5.01,0.00,22.1,22.7,00.0,31.0,24.0,10.2,0000.0,0003.45,0003.99,0003.30
2022-02-12 08:35:00,,0835.3,5.01,0.00,22.1,22.4,00.0,31.0,24.0,10.1,0000.0,0003.50,0004.12,0003.33
2022-02-12 08:36:00,,0835.3,5.00,0.00,22.1,22.2,00.0,31.0,23.9,10.1,0000.0,0003.55,0004.21,0003.38
2022-02-12 08:37:00,,0835.3,5.00,0.00,22.1,21.9,00.0,31.0,23.8,10.1,0000.0,0003.58,0004.30,0003.41
2022-02-12 08:38:00,,0835.3,5.00,0.00,22.0,21.8,00.0,31.0,23.7,10.0,0000.0,0003.59,0004.42,0003.42
2022-02-12 08:39:00,,0835.3,4.99,0.00,22.0,21.6,00.0,31.0,23.6,09.8,0000.0,0003.56,0004.36,0003.40
2022-02-12 08:40:00,,0835.2,5.01,0.00,22.0,21.5,00.0,31.0,23.6,09.8,0000.0,0003.53,0004.30,0003.38
2022-02-12 08:41:00,,0835.2,5.00,0.00,21.9,21.4,00.0,31.0,23.5,09.7,0000.0,0003.53,0004.35,0003.37
2022-02-12 08:42:00,,0835.3,4.99,0.00,21.9,21.3,00.0,31.0,23.5,09.7,0000.0,0003.52,0004.37,0003.36
2022-02-12 08:43:00,,0835.3,4.99,0.00,21.9,21.2,00.0,30.9,23.5,09.7,0000.0,0003.51,0004.36,0003.35
2022-02-12 08:44:00,,0835.3,5.01,0.00,21.8,21.1,00.0,30.9,23.4,09.6,0000.0,0003.52,0004.56,0003.36
2022-02-12 08:45:00,,0835.3,4.99,0.00,21.8,21.1,00.0,30.9,23.4,09.6,0000.0,0003.51,0004.56,0003.35
2022-02-12 08:46:00,,0835.3,5.00,0.00,21.8,21.6,00.0,30.9,23.5,09.5,0000.0,0003.50,0004.49,0003.35
2022-02-12 08:47:00,,0835.4,5.01,0.00,22.0,22.3,00.0,31.0,23.8,09.3,0000.0,0003.48,0004.48,0003.33
2022-02-12 08:48:00,,0835.3,5.00,0.00,22.1,22.8,00.0,31.0,24.0,09.2,0000.0,0003.45,0004.41,0003.31
2022-02-12 08:49:00,,0835.3,5.00,0.00,22.1,22.6,00.0,31.0,24.0,09.1,0000.0,0003.42,0004.29,0003.30
2022-02-12 08:50:00,,0835.3,5.00,0.00,22.1,22.3,00.0,31.0,23.9,09.0,0000.0,0003.42,0004.31,0003.30
2022-02-12 08:51:00,,0835.2,5.01,0.00,22.1,22.0,00.0,31.0,23.8,09.0,0000.0,0003.43,0004.36,0003.29
2022-02-12 08:52:00,,0835.3,5.00,0.00,22.1,21.8,00.0,31.0,23.8,09.0,0000.0,0003.40,0004.36,0003.27
2022-02-12 08:53:00,,0835.2,4.99,0.00,22.0,21.6,00.0,31.0,23.7,08.9,0000.0,0003.39,0004.34,0003.25
2022-02-12 08:54:00,,0835.2,5.00,0.00,22.0,21.5,00.0,31.0,23.6,08.9,0000.0,0003.38,0004.53,0003.24
2022-02-12 08:55:00,,0835.2,4.99,0.00,21.9,21.4,00.0,31.0,23.5,08.8,0000.0,0003.36,0005.36,0003.23
2022-02-12 08:56:00,,0835.2,5.00,0.00,21.9,21.3,00.0,31.0,23.5,08.8,0000.0,0003.34,0005.32,0003.21
2022-02-12 08:57:00,,0835.1,5.02,0.00,21.8,21.2,00.0,31.0,23.4,08.7,0000.0,0003.31,0005.23,0003.18
2022-02-12 08:58:00,,0835.1,4.99,0.00,21.8,21.1,00.0,30.9,23.4,08.7,0000.0,0003.28,0005.13,0003.17
2022-02-12 08:59:00,,0835.1,5.01,0.00,21.8,21.1,00.0,30.9,23.3,08.6,0000.0,0003.28,0005.08,0003.16
